x

Burns Harbor, In (bhri3) Weather Station

4:40am - Wed 22nd Feb 2017 All times are CST. -6 hours from GMT.

  • Wind
    13mph, 16mph gusts
  • Air Temp 54°f
  • Sea Pressure 1011.2mb
  • Burns Harbor, In
  • Burns Harbor, In

More Historic Weather Station data

Upgrade to MSW Pro to gain access to the past 30 days of data for over 8000 Wavebouys and Weather Stations around the globe.

Join Pro

Comparision Forecast

View Surf forecast
   
Wed 02/22 4:40am 13 16 mph 1011.2mb 54f
4:30am 13 16 mph 1011.2mb 54f
4:20am 13 15 mph 1011.2mb 54f
4:10am 11 16 mph 1011.2mb 53f
4:04am 13 17 mph 1011.2mb 54f
4:00am 13 16 mph 1011.2mb 54f
3:40am 11 16 mph 1011.2mb 54f
3:30am 11 16 mph 1011.2mb 54f
3:20am 13 15 mph 1011.2mb 53f
3:10am 10 14 mph 1011.2mb 53f
3:04am 10 14 mph 1011.2mb 53f
3:00am 9 14 mph 1011.5mb 53f
2:40am 10 13 mph 1011.5mb 53f
2:30am 8 9 mph 1011.5mb 51f
2:20am 7 8 mph 1011.5mb 51f
2:03am 3 9 mph 1011.5mb 51f
2:00am 5 7 mph 1011.5mb 51f
1:40am 7 8 mph 1011.9mb 50f
1:30am 7 9 mph 1011.9mb 51f
1:20am 7 8 mph 1011.5mb 51f
1:10am 6 7 mph 1011.5mb 51f
1:03am 6 9 mph 1011.5mb 51f
1:00am 6 7 mph 1011.5mb 51f
12:40am 7 8 mph 1011.9mb 51f
12:30am 7
mph
1011.5mb 52f
12:20am 6 9 mph 1011.5mb 53f
12:10am 8 9 mph 1011.9mb 53f
12:02am 8 11 mph 1011.9mb 54f
12:00am 8 9 mph 1011.9mb 54f
Tue 02/21 11:40pm 8 10 mph 1011.9mb 53f
11:30pm 10 11 mph 1011.9mb 54f
11:20pm 9 10 mph 1011.9mb 54f
11:10pm 9 10 mph 1011.9mb 54f
11:02pm 10 15 mph 1011.9mb 55f
11:00pm 10 13 mph 1011.9mb 55f
10:40pm 11 13 mph 1011.9mb 55f
10:30pm 10 14 mph 1011.9mb 56f
10:20pm 11 15 mph 1012.2mb 56f
10:10pm 11 15 mph 1012.2mb 56f
10:02pm 10 15 mph 1012.2mb 57f
10:00pm 10 15 mph 1012.2mb 57f
9:40pm 8 13 mph 1012.5mb 57f
9:30pm 8 11 mph 1012.5mb 57f
9:20pm 8 10 mph 1012.9mb 56f
9:10pm 9 10 mph 1013.2mb 56f
9:01pm 9 13 mph 1013.2mb 56f
9:00pm 9 11 mph 1013.2mb 56f
8:40pm 8 11 mph 1013.5mb 57f
8:30pm 9 10 mph 1013.5mb 57f
8:20pm 9 10 mph 1013.5mb 57f
8:10pm 8 13 mph 1013.5mb 58f
8:01pm 9 13 mph 1013.5mb 59f
8:00pm 9 13 mph 1013.5mb 59f
7:40pm 7 9 mph 1013.2mb 58f
7:30pm 6 8 mph 1013.5mb 58f
7:20pm 6 8 mph 1013.5mb 58f
7:10pm 3 5 mph 1013.5mb 57f
7:00pm  -  7 mph 1013.5mb 57f
6:40pm 1 7 mph 1013.5mb 56f
6:30pm 6 7 mph 1013.5mb 56f
6:20pm 6 7 mph 1013.5mb 55f
6:10pm 5 7 mph 1013.5mb 53f
6:00pm 5 8 mph 1013.5mb 53f
5:40pm 8
mph
1013.5mb 46f
5:30pm 7 8 mph 1013.5mb 45f
5:20pm 5 7 mph 1013.5mb 47f
5:10pm 7 8 mph 1013.5mb 48f
5:00pm 8 9 mph 1013.5mb 50f
4:40pm 7
mph
1013.5mb 49f
4:30pm 7
mph
1013.5mb 48f
4:20pm 7
mph
1013.5mb 48f
4:10pm 5 6 mph 1013.5mb 49f
4:00pm 6
mph
1013.5mb 50f
3:40pm 5 6 mph 1013.5mb 50f
3:20pm 6
mph
1013.2mb 48f
3:10pm 5 6 mph 1013.2mb 50f
3:00pm 5 6 mph 1013.2mb 51f
2:40pm 2 5 mph 1013.2mb 51f
2:30pm 2 5 mph 1012.9mb 55f
2:20pm 6 8 mph 1013.2mb 58f
2:10pm 5 9 mph 1013.2mb 56f
2:00pm 7 17 mph 1013.2mb 63f
1:40pm 9 13 mph 1013.5mb 63f
1:30pm 7 13 mph 1013.5mb 62f
1:20pm 8 14 mph 1013.9mb 61f
1:10pm 8 13 mph 1013.9mb 61f
1:00pm 8 11 mph 1013.9mb 61f
12:40pm 11 14 mph 1014.2mb 61f
12:30pm 10 14 mph 1013.9mb 60f
12:20pm 14 16 mph 1014.2mb 60f
12:10pm 15 17 mph 1014.2mb 59f
12:04pm 15 17 mph 1014.2mb 60f
12:00pm 14 16 mph 1014.2mb 60f
11:40am 11 14 mph 1014.6mb 59f
11:30am 13 15 mph 1014.9mb 58f
11:20am 13 16 mph 1014.9mb 58f
11:10am 10 14 mph 1014.9mb 56f
11:04am 11 14 mph 1014.9mb 57f
11:00am 11 13 mph 1014.9mb 57f
10:40am 9 11 mph 1014.9mb 56f
10:30am 7 11 mph 1014.9mb 55f
10:20am 9 13 mph 1014.9mb 55f
10:04am 10 11 mph 1014.9mb 53f
10:00am 9 11 mph 1015.2mb 53f
9:40am 8 9 mph 1014.9mb 53f
9:30am 8 9 mph 1014.6mb 53f
9:20am 8 11 mph 1014.6mb 53f
9:10am 7 15 mph 1014.6mb 54f
9:03am 11 15 mph 1014.6mb 54f
9:00am 11 15 mph 1014.6mb 54f
8:40am 7 9 mph 1014.6mb 52f
8:30am 8 11 mph 1014.6mb 53f
8:20am 9 14 mph 1014.6mb 54f
8:10am 9 10 mph 1014.6mb 53f
8:03am 7 21 mph 1014.2mb 54f
8:00am 9 13 mph 1014.2mb 54f
7:40am 9 16 mph 1014.2mb 54f
7:30am 15 21 mph 1014.6mb 54f
7:20am 9 13 mph 1014.6mb 54f
7:10am 11 14 mph 1014.2mb 54f
7:02am 10 17 mph 1014.6mb 54f
7:00am 11 15 mph 1014.6mb 54f
6:40am 13 16 mph 1014.2mb 55f
6:30am 9 17 mph 1013.9mb 55f
6:20am 14 17 mph 1014.2mb 55f
6:10am 11 17 mph 1014.6mb 55f
6:02am 11 17 mph 1014.2mb 56f
6:00am 11 14 mph 1014.2mb 56f
5:40am 10 13 mph 1013.9mb 55f
5:30am 9 13 mph 1013.9mb 56f
5:20am 9 11 mph 1014.2mb 56f
5:10am 9 14 mph 1014.2mb 56f
5:02am 10 17 mph 1014.2mb 55f
5:00am 9 11 mph 1014.2mb 55f
4:40am 11 15 mph 1014.6mb 56f
4:30am 11 15 mph 1014.2mb 56f
4:20am 13 15 mph 1013.9mb 56f
4:10am 13 17 mph 1013.9mb 56f
4:01am 15 23 mph 1013.9mb 56f
4:00am 15 18 mph 1013.9mb 56f
3:40am 14 18 mph 1013.5mb 55f
3:30am 13 22 mph 1013.5mb 56f
3:20am 16 22 mph 1013.5mb 56f
3:10am 18 23 mph 1013.5mb 56f
3:01am 13 23 mph 1013.5mb 56f
3:00am 13 18 mph 1013.5mb 56f
2:40am 13 20 mph 1013.9mb 56f
2:30am 15 21 mph 1013.5mb 56f
2:20am 15 21 mph 1013.5mb 57f
2:10am 15 23 mph 1013.9mb 57f
2:00am 16 25 mph 1013.9mb 57f
1:40am 18 25 mph 1013.9mb 58f
1:30am 13 21 mph 1013.5mb 58f
1:20am 15 21 mph 1013.5mb 58f
1:10am 13 21 mph 1013.5mb 58f
1:00am 17 24 mph 1013.9mb 58f
12:40am 14 21 mph 1014.2mb 58f
12:30am 13 23 mph 1014.2mb 58f
12:20am 15 23 mph 1014.2mb 58f
12:10am 16 22 mph 1014.6mb 58f
12:00am 17 25 mph 1014.2mb 58f
Mon 02/20 11:40pm 16 28 mph 1014.2mb 58f
11:20pm 16 26 mph 1014.2mb 58f
11:10pm 18 28 mph 1013.9mb 58f
11:00pm 16 28 mph 1014.2mb 59f
10:40pm 17 30 mph 1014.2mb 59f
10:36pm 17 30 mph 1013.9mb 59f
10:30pm 15 26 mph 1014.2mb 59f
10:20pm 20 29 mph 1014.2mb 59f
10:10pm 18 25 mph 1014.2mb 60f
10:03pm 16
mph
1014.6mb 60f
10:00pm 17 30 mph 1014.6mb 60f
9:40pm 15 31 mph 1014.6mb 60f
9:31pm 15 31 mph 1014.2mb 60f
9:30pm 15 24 mph 1014.9mb 60f
9:20pm 15 25 mph 1014.6mb 60f
9:10pm 16 25 mph 1014.9mb 60f
9:02pm 16 26 mph 1014.9mb 60f
9:00pm 13 24 mph 1015.2mb 60f
8:40pm 10 21 mph 1015.2mb 60f
8:30pm 10 21 mph 1015.6mb 60f
8:20pm 10 26 mph 1015.6mb 60f
8:10pm 17 26 mph 1015.2mb 61f
8:02pm 15
mph
1015.2mb 60f
8:00pm 11 21 mph 1015.6mb 60f
7:40pm 13 25 mph 1015.6mb 61f
7:30pm 16 23 mph 1015.9mb 62f
7:20pm 13 28 mph 1015.9mb 62f
7:10pm 16 30 mph 1015.9mb 62f
7:03pm 17 30 mph 1015.9mb 62f
7:01pm 18 28 mph 1015.9mb 62f
7:00pm 18 25 mph 1015.9mb 62f
6:40pm 16 25 mph 1016.3mb 62f
6:30pm 17 26 mph 1016.3mb 63f
6:20pm 17 25 mph 1016.6mb 62f
6:01pm 15 23 mph 1016.3mb 63f
6:00pm 15 23 mph 1016.3mb 63f
5:40pm 14 21 mph 1016.6mb 63f
5:30pm 13 22 mph 1016.9mb 63f
5:20pm 14 23 mph 1016.9mb 63f
5:10pm 15 23 mph 1016.9mb 64f
5:00pm 14 26 mph 1016.9mb 64f
4:40pm 10 17 mph 1016.9mb 64f
4:30pm 10 22 mph 1016.9mb 65f
4:20pm 11 21 mph 1016.9mb 65f
4:10pm 16 23 mph 1016.9mb 65f
4:00pm 14 25 mph 1016.6mb 65f
3:40pm 14 21 mph 1016.9mb 66f
3:30pm 15 23 mph 1016.9mb 66f
3:20pm 11 25 mph 1016.9mb 66f
3:10pm 13 25 mph 1017.3mb 66f
3:00pm 13 26 mph 1017.3mb 66f
2:40pm 18 23 mph 1017.6mb 66f
2:30pm 10 23 mph 1017.6mb 66f
2:20pm 15 23 mph 1017.6mb 66f
2:10pm 11 24 mph 1017.9mb 65f
2:00pm 9 20 mph 1017.9mb 66f
1:40pm 17 24 mph 1018.3mb 65f
1:30pm 14 25 mph 1018.3mb 65f
1:20pm 18 23 mph 1018.6mb 65f
1:10pm 15 23 mph 1018.6mb 65f
1:00pm 14 22 mph 1018.3mb 65f
12:40pm 13 23 mph 1018.6mb 65f
12:30pm 11 24 mph 1019mb 65f
12:20pm 17 23 mph 1018.6mb 64f
12:10pm 13 26 mph 1019mb 64f
12:00pm 10 23 mph 1019mb 63f
11:40am 14 22 mph 1019.3mb 62f
11:30am 13 21 mph 1019.6mb 62f
11:20am 10 18 mph 1020mb 62f
11:10am 17 23 mph 1020.3mb 61f
11:02am 15 24 mph 1020.3mb 61f
11:00am 14 24 mph 1020.3mb 61f
10:40am 11 22 mph 1020.7mb 60f
10:30am 10 21 mph 1021mb 60f
10:20am 14 22 mph 1021.3mb 59f
10:10am 9 17 mph 1021.3mb 58f
10:02am 13 22 mph 1021.3mb 57f
10:00am 9 16 mph 1021.3mb 57f
9:40am 11 18 mph 1021mb 55f
9:30am 10 17 mph 1021mb 55f
9:20am 11 18 mph 1021.3mb 55f
9:10am 13 22 mph 1021.3mb 54f
9:01am 11 20 mph 1021.7mb 53f
9:00am 11 20 mph 1021.7mb 53f
8:40am 8 16 mph 1021.7mb 52f
8:30am 11 17 mph 1022mb 51f
8:20am 10 18 mph 1021.7mb 51f
8:10am 10 17 mph 1021.7mb 51f
8:01am 9 20 mph 1021.7mb 50f
8:00am 9 15 mph 1021.7mb 50f
7:40am 9 15 mph 1022mb 50f
7:20am 8 17 mph 1021.7mb 49f
7:10am 8 13 mph 1021.3mb 49f
7:00am 8 17 mph 1021.3mb 49f
6:40am 7 11 mph 1021.7mb 48f
6:30am 9 17 mph 1021.7mb 49f
6:20am 14 17 mph 1021.3mb 49f
6:10am 9 17 mph 1021mb 50f
6:00am 10 14 mph 1021mb 50f
5:40am 9 13 mph 1021mb 50f
5:30am 7 10 mph 1021mb 49f
5:20am 7 10 mph 1021mb 50f
5:10am 9 11 mph 1021mb 51f
5:00am 9 13 mph 1020.7mb 51f
4:40am 10 13 mph 1021mb 52f
4:30am 7 13 mph 1021mb 52f
4:20am 6 7 mph 1021mb 50f
4:10am 6 8 mph 1021mb 51f
4:00am 5 8 mph 1021mb 51f
3:40am 6 9 mph 1021mb 51f
3:30am 5 9 mph 1021mb 51f
3:20am 6 9 mph 1021mb 51f
3:10am 5 8 mph 1021mb 51f
3:00am 6 11 mph 1021mb 51f
2:40am 8 11 mph 1021mb 52f
2:30am 7 11 mph 1021mb 52f
2:20am 8 11 mph 1021mb 51f
2:03am 7 15 mph 1021.3mb 51f
2:00am 7 10 mph 1021mb 51f
1:40am 8 13 mph 1021mb 52f
1:30am 8 13 mph 1021mb 52f
1:20am 9 13 mph 1021mb 53f
1:10am 9 15 mph 1021mb 53f
1:02am 8 13 mph 1020.7mb 53f
1:00am 9 13 mph 1021mb 53f
12:40am 7 11 mph 1021mb 54f
12:30am 7 11 mph 1021mb 55f
12:20am 9 11 mph 1021mb 55f
12:10am 8 13 mph 1020.7mb 55f
12:02am 8 13 mph 1020.7mb 55f
12:00am 8 13 mph 1020.7mb 55f
Sun 02/19 11:40pm 8 11 mph 1021mb 54f
11:30pm 5 8 mph 1021mb 55f
11:20pm 6 10 mph 1020.7mb 55f
11:10pm 7 10 mph 1020.7mb 55f
11:02pm 7 11 mph 1020.7mb 56f
11:00pm 8 10 mph 1020.7mb 56f
10:40pm 8 9 mph 1020.3mb 56f
10:30pm 5 9 mph 1020.3mb 55f
10:20pm 3 9 mph 1020.3mb 55f
10:10pm 6 10 mph 1020.3mb 55f
10:01pm 7 10 mph 1020.3mb 55f
10:00pm 7 10 mph 1020.3mb 55f
9:40pm 7 9 mph 1020.3mb 55f
9:30pm 5 7 mph 1020mb 55f
9:20pm 5 7 mph 1020mb 55f
9:10pm 5 7 mph 1020mb 55f
9:01pm 3 7 mph 1020mb 55f
9:00pm 3 6 mph 1020mb 55f
8:40pm  -  2 mph 1020mb 52f
8:30pm 1 7 mph 1019.6mb 55f
8:20pm 3 6 mph 1019.6mb 53f
8:10pm 3 7 mph 1019.3mb 55f
8:00pm 3 6 mph 1019.3mb 52f
7:40pm  -  2 mph 1019.3mb 49f
7:30pm 1 2 mph 1019.6mb 50f
7:20pm 2 6 mph 1019.3mb 45f
7:10pm 3 5 mph 1019.3mb 42f
7:00pm 5 8 mph 1019.3mb 44f
6:40pm 5 7 mph 1019.3mb 46f
6:30pm 6 8 mph 1019.3mb 45f
6:20pm 5 6 mph 1019.3mb 44f
6:10pm 3 6 mph 1019mb 42f
6:00pm 5 13 mph 1019.3mb 41f
5:40pm 6 9 mph 1019mb 39f
5:30pm 9
mph
1019mb 39f
5:20pm 9 10 mph 1019mb 39f
5:10pm 8 11 mph 1018.6mb 40f
5:00pm 9 10 mph 1018.6mb 40f
4:40pm 10 13 mph 1019mb 41f
4:30pm 10 11 mph 1019mb 41f
4:20pm 11 13 mph 1018.6mb 42f
4:10pm 10 13 mph 1018.6mb 43f
4:00pm 11 13 mph 1018.6mb 44f
3:40pm 10 13 mph 1018.6mb 43f
3:30pm 11
mph
1018.6mb 43f
3:20pm 9 11 mph 1019mb 43f
3:10pm 10
mph
1018.6mb 42f
3:00pm 10
mph
1019mb 43f
2:40pm 10
mph
1018.6mb 44f
2:30pm 9 10 mph 1018.6mb 43f
2:20pm 9 10 mph 1018.6mb 44f
2:10pm 10
mph
1018.6mb 44f
2:02pm 9 10 mph 1018.3mb 45f
2:00pm 10
mph
1018.3mb 45f
1:40pm 9
mph
1018.6mb 45f
1:30pm 8 9 mph 1018.6mb 45f
1:20pm 7 8 mph 1018.6mb 46f
1:10pm 7
mph
1018.6mb 46f
1:01pm 6 7 mph 1018.3mb 46f
1:00pm 6
mph
1018.6mb 46f
12:40pm 6 7 mph 1018.6mb 46f
12:30pm 5 6 mph 1018.6mb 45f
12:20pm 5 6 mph 1019mb 46f
12:10pm 3 6 mph 1018.6mb 45f
12:01pm 5 7 mph 1018.6mb 47f
12:00pm 5 6 mph 1018.6mb 47f
11:40am 3 7 mph 1019mb 43f
11:30am 5 7 mph 1019mb 45f
11:20am 5 6 mph 1019mb 46f
11:10am 3 5 mph 1019mb 45f
11:00am 5
mph
1018.6mb 45f
10:40am 2 3 mph 1018.6mb 48f
10:30am 2 3 mph 1018.6mb 47f
10:20am 2
mph
1018.6mb 49f
10:10am 2 3 mph 1018.6mb 46f
10:00am 2 5 mph 1019mb 47f